Location: Kellogg
(38.0159°N, 90.0546°W)
Time: 23:34:37
(UTC+00:00)

SR - Pass Details

Date: 17 September 2024
Orbit: 578 x 855 km, 66.7° (Epoch: 09 October)

Event Time Altitude Azimuth Distance (km) Brightness Sun altitude
Rises 02:04:27 0° 352° (N) 2,938 ? -23.6°
Reaches altitude 10° 02:08:30 10° 28° (NNE) 2,095 ? -24.3°
Enters shadow 02:08:40 10° 30° (NNE) 2,081 ? -24.3°
Maximum altitude 02:09:55 11° 45° (NE) 2,040 - -24.5°
Drops below altitude 10° 02:11:22 10° 63° (ENE) 2,146 - -24.8°
Sets 02:15:41 0° 98° (E) 3,144 - -25.6°
